Terug naar catalogus

STARLINK-11337

ActiefCommunicatieVLEO
NORAD 61940·PAYLOAD·🇺🇸 United States

Gelanceerd Nov 14, 2024 vanaf Vandenberg Space Force Base

Loading…

Volgende Passages (komende 24 uur)

TLE

VersSource: CelesTrak SupGP

Epoch: Sep 14, 2026, 21:05 UTC

1 61940C 24209B   26257.87895833 -.00011615  00000+0 -95663-4 0  2575
2 61940  53.1571 158.3462 0001374  87.1766   0.7486 15.69717425    16

Volg STARLINK-11337 in realtime met AllMySat

Download on the App Store